小惑星2008 KV42

2008 KV42

English version
Home page
Total 6,336 html files since Dec. 4, 1995
Updated on July 20, 2008

---------------------------------------------------------------------

・ プロフィール

発見日 2008年5月31日
発見光度 23.7-23.8等
発見者 B. Gladman, J. Kavelaars, J.-M. Petit (Canada-France-Hawaii telescope)

・ 軌道要素

Epoch 2008 June 3.0 TT = JDT 2454620.5                  MPC
M 330.07583              (2000.0)            P               Q
n   0.00316033     Peri.  132.89545     -0.06257376     +0.27129487
a  45.9883262      Node   261.01603     +0.35796445     +0.90441740
e   0.5603890      Incl.  103.49524     +0.93163618     -0.32928448
P 312              H    8.8           G   0.15
From 15 observations 2008 May 31-July 8.

・ 光度変化

        H = 8.8  G = 0.15

---------------------------------------------------------------------

軌道要素はM.P.E.C. 2008-O02に掲載されたものです。
光度グラフはComet for Windowsで作成したものです。

---------------------------------------------------------------------

Copyright(C) 1995-2008 Seiichi Yoshida (comet@aerith.net). All rights reserved.